Starlink 32933

operational
NORAD ID: 63082 Int'l Des: 2025-037 Owner: SPXS Country: US Constellation: starlink
LEOCIRCULAR

Starlink 32933について

説明を読み込み中...

リアルタイム位置

3D地球を読み込み中...

次回通過

高度履歴

Altitude vs Time

uPlot chart will show altitude changes over time

軌道要素

1 63082U 25037F 25259.25002315 .00017622 00000-0 14811-2 0 9992
2 63082 70.0013 74.2877 0002904 268.1628 46.1884 14.98327553 5772
Epoch: Sep 16, 2025 • Age: 9 hours

現在のステータス

高度 574.0 km
速度 7.57 km/s
衛星直下点 7.47°N, 30.11°E
打ち上げ日 Feb 23, 2025
運用期間 0.5 years
タイプ internet

技術仕様

分類 Payload
質量 730.00 kg
乾燥質量 700.00 kg
総質量 730.00 kg
長さ 0.30 m
直径 4.10 m
スパン 29.00 m
形状 Box + pan
製造者 SPXS
バスタイプ Starlink V2M
フェーズステータス In Orbit
所有者/国 SPXS/US

大規模コンステレーション

Loading constellations...